Location: Newark
(51.3318°N, 0.0053°E)
Time: 01:46:47
(UTC+00:00)

ITUPSAT 1 - Pass Details

Date: 04 July 2022
Orbit: 701 x 711 km, 98.6° (Epoch: 09 August)

Event Time Altitude Azimuth Distance (km) Brightness Sun altitude
Rises 21:24:07 0° 10° (N) 3,114 ? -7.9°
Reaches altitude 10° 21:26:28 10° 3° (N) 2,192 ? -8.1°
Maximum altitude 21:30:56 40° 295° (WNW) 1,042 ? -8.5°
Drops below altitude 10° 21:35:24 10° 226° (SW) 2,183 ? -8.9°
Sets 21:37:45 0° 219° (SW) 3,099 ? -9.2°
